TUBIN
1 48900U 21059X 21189.06711476 .00000912 00000-0 56593-4 0 9995
2 48900 97.5119 317.7352 0009769 202.1004 157.9806 15.12166662 1859
/EX
1
0
SB KEPS @ AMSAT $ORB21182.N
2Line Orbital Elements 21182.AMSAT
HR AMSAT ORBITAL ELEMENTS FOR AMATEUR SATELLITES IN NASA FORMAT
FROM WA5QGD FORT WORTH,TX July 1, 2021
BID: ORB21182.N
DECODE 2-LINE ELSETS WITH THE FOLLOWING KEY:
1 AAAAAU 00 0 0 BBBBB.BBBBBBBB .CCCCCCCC 00000-0 00000-0 0 DDDZ
2 AAAAA EEE.EEEE FFF.FFFF GGGGGGG HHH.HHHH III.IIII JJ.JJJJJJJJKKKKKZ
KEY: A-CATALOGNUM B-EPOCHTIME C-DECAY D-ELSETNUM E-INCLINATION F-RAAN
G-ECCENTRICITY H-ARGPERIGEE I-MNANOM J-MNMOTION K-ORBITNUM Z-CHECKSUM
TO ALL RADIO AMATEURS BT
AO-07
1 07530U 74089B 21182.54773019 -.00000030 00000-0 99564-4 0 9994
2 07530 101.8543 157.0359 0012318 357.2711 120.4892 12.53649248133490
UO-11
1 14781U 84021B 21182.56057900 .00000144 00000-0 23653-4 0 9994
2 14781 97.5923 181.7073 0009479 43.1283 317.0673 14.83297942988028
LO-19
1 20442U 90005G 21182.38214957 .00000010 00000-0 20228-4 0 9998
2 20442 98.7420 137.9759 0012755 117.4641 242.7841 14.32990299642827
HUBBLE
1 20580U 90037B 21182.59773771 .00000643 00000-0 27909-4 0 9998
2 20580 28.4707 331.4905 0002552 212.5819 240.1803 15.09671884513154
MET-2/21
1 22782U 93055A 21182.60169898 .00000057 00000-0 37910-4 0 9990
2 22782 82.5498 292.6780 0021135 250.5208 119.9192 13.83837706405486
AO-27
1 22825U 93061C 21182.58113079 -.00000008 00000-0 14764-4 0 9991
2 22825 98.9164 200.5433 0008393 1.5644 358.5562 14.30118117448005
IO-26
1 22826U 93061D 21182.61813887 -.00000001 00000-0 17674-4 0 9996
2 22826 98.9106 200.4885 0008665 348.1986 11.8991 14.30457502448259
FO-29
1 24278U 96046B 21182.42552165 -.00000047 00000-0 -14231-4 0 9990
2 24278 98.5665 248.5504 0351352 113.4209 250.4283 13.53105337228132
NOAA-15
1 25338U 98030A 21182.60975671 .00000078 00000-0 51095-4 0 9995
2 25338 98.6805 211.0075 0009393 235.7862 124.2428 14.26041717203014
GO-32
1 25397U 98043D 21182.46162770 -.00000009 00000-0 15615-4 0 9999
2 25397 98.7715 127.9758 0002245 63.4357 296.7051 14.23710789193482
ISS
1 25544U 98067A 21182.56112803 .00001466 00000-0 35026-4 0 9997
2 25544 51.6447 271.6406 0002235 127.9431 0.1719 15.48753629290823
NO-44
1 26931U 01043C 21182.57935877 -.00000034 00000-0 18846-4 0 9993
2 26931 67.0506 243.9816 0006292 261.2726 98.7663 14.30623495 31218
SO-50
1 27607U 02058C 21182.59903521 .00000015 00000-0 22673-4 0 9995
2 27607 64.5560 295.0890 0042249 16.2359 344.0085 14.75761495996614
CO-55
1 27844U 03031E 21182.61618690 .00000057 00000-0 45012-4 0 9991
2 27844 98.6790 190.6136 0010729 43.4488 316.7534 14.22317362933995
CO-57
1 27848U 03031J 21182.47285582 .00000050 00000-0 42398-4 0 9996
2 27848 98.6846 191.0361 0010796 56.0153 304.2049 14.21893520933806
RS-22
1 27939U 03042A 21182.56905359 .00000139 00000-0 33648-4 0 9996
2 27939 98.1441 319.5655 0011885 230.9248 129.0909 14.66995402949596
NOAA-18
1 28654U 05018A 21182.61199656 .00000097 00000-0 76746-4 0 9996
2 28654 98.9931 247.5325 0013347 239.6326 120.3527 14.12618533830446
CO-58
1 28895U 05043F 21182.30106950 .00000209 00000-0 48944-4 0 9996
2 28895 98.0609 315.2382 0017243 162.5319 197.6481 14.63926847836030
Falconsat-3
1 30776U 07006E 21182.61838231 .00007092 00000-0 16902-3 0 9991
2 30776 35.4355 9.1841 0002326 7.5334 352.5428 15.40917446795290
CO-65
1 32785U 08021C 21182.51416527 .00000353 00000-0 43433-4 0 9993
2 32785 97.6114 160.8115 0011954 322.7737 37.2651 14.88740733714335
AAUSAT2
1 32788U 08021F 21182.53913503 .00001194 00000-0 11238-3 0 9995
2 32788 97.5048 176.6056 0010420 215.8965 144.1558 14.95622455715966
DO-64
1 32789U 08021G 21182.60531061 .00002150 00000-0 13935-3 0 9998
2 32789 97.3744 217.4259 0013616 94.1987 266.0799 15.09065952718962
CO-66
1 32791U 08021J 21182.38433795 .00000610 00000-0 66336-4 0 9994
2 32791 97.5711 166.5852 0011597 281.9103 78.0815 14.91433067714856
RS-30
1 32953U 08025A 21182.39287303 .00000021 00000-0 80971-4 0 9998
2 32953 82.5050 42.2620 0019035 309.2641 50.6750 12.43102217594715
PRISM
1 33493U 09002B 21182.49226066 .00000870 00000-0 79724-4 0 9990
2 33493 98.1883 145.7115 0013963 238.2513 121.7347 14.97698444676427
NOAA-19
1 33591U 09005A 21182.57658468 .00000073 00000-0 64833-4 0 9996
2 33591 99.1821 203.6317 0015012 92.9913 267.2976 14.12479230638657
SRMSAT
1 37841U 11058D 21182.44173343 .00000296 00000-0 17569-4 0 9990
2 37841 19.9706 216.5338 0012072 87.4002 43.1481 14.10698114501639
HRBE
1 37855U 11061F 21182.35901872 .00004618 00000-0 22623-3 0 9993
2 37855 101.7113 112.9656 0166753 29.3593 331.6863 15.07772581528270
RS-40
1 38735U 12041C 21182.44294473 -.00000000 00000-0 -74773-4 0 9999
2 38735 82.4759 124.3742 0018477 56.9821 303.3034 12.42582875404923
ZACUBE-1
1 39417U 13066B 21182.49836764 .00000358 00000-0 50606-4 0 9998
2 39417 97.5930 166.0981 0060026 114.4189 246.3304 14.81531568411158
GOMX-1
1 39430U 13066Q 21182.51720529 .00000297 00000-0 62010-4 0 9991
2 39430 97.8141 104.7801 0151932 70.6900 291.0655 14.59624914405096
LO-74
1 39440U 13066AA 21182.48270935 .00000254 00000-0 42001-4 0 9990
2 39440 97.6767 151.1361 0079436 188.9391 171.0410 14.76258869409698
AO-73
1 39444U 13066AE 21182.47392257 .00000488 00000-0 65361-4 0 9998
2 39444 97.5834 168.4417 0059192 104.9946 255.7830 14.82442862409512
SPROUT
1 39770U 14029E 21182.52669906 .00000864 00000-0 99114-4 0 9995
2 39770 97.9185 293.7888 0009298 153.6895 206.4795 14.88467166385434
DTUSAT-2
1 40030U 14033W 21182.33229397 .00000446 00000-0 53341-4 0 9994
2 40030 97.9162 109.5757 0012979 124.7343 235.5098 14.89010299381387
EO-80
1 40032U 14033Y 21182.36309397 .00000436 00000-0 52292-4 0 9991
2 40032 97.9167 109.6133 0012900 125.6153 234.6268 14.88967769381882
HODOYOSHI-1
1 40299U 14070B 21182.47903669 .00000871 00000-0 37925-4 0 9990
2 40299 97.2854 255.6794 0011262 302.9838 152.6000 15.24761968369555
FIREBIRD FU3
1 40377U 15003B 21182.42005666 .00006636 00000-0 23932-3 0 9996
2 40377 99.1017 326.5773 0118164 125.8940 235.3330 15.22566098354918
FIREBIRD FU4
1 40378U 15003C 21182.33027820 .00007110 00000-0 25565-3 0 9995
2 40378 99.1022 326.6116 0118218 126.0068 235.2192 15.22618602354915
GRIFEX
1 40379U 15003D 21182.31044774 .00005194 00000-0 20901-3 0 9990
2 40379 99.0974 315.7888 0128632 158.7306 201.9339 15.18148040354297
NO-84
1 40654U 15025D 21181.44417144 .00042708 00000-0 28003-3 0 587
2 40654 54.9792 340.3440 0076769 99.7349 261.2357 15.71280702 9098
XW-2A
1 40903U 15049E 21182.48815660 .00003447 00000-0 73792-4 0 9997
2 40903 97.2345 236.9275 0011121 331.5438 136.8300 15.45426025324964
XW-2C
1 40906U 15049H 21182.55135333 .00000922 00000-0 50257-4 0 9996
2 40906 97.4854 184.7275 0015656 133.3072 343.0765 15.16777110319708
XW-2D
1 40907U 15049J 21182.54411240 .00001161 00000-0 61859-4 0 9996
2 40907 97.4841 184.5192 0015011 129.5814 354.8598 15.17103496319735
LILACSAT-2
1 40908U 15049K 21182.50302294 .00000292 00000-0 19428-4 0 9990
2 40908 97.5033 182.3028 0016553 145.6973 18.9723 15.14459045319358
XW-2E
1 40909U 15049L 21182.48153640 .00001691 00000-0 82483-4 0 9992
2 40909 97.4652 188.4852 0014664 117.2087 42.1448 15.19595769320061
XW-2F
1 40910U 15049M 21182.54788352 .00001645 00000-0 81459-4 0 9996
2 40910 97.4713 187.6289 0015770 116.9569 1.5843 15.19096282319866
